Terminal Aerodrome Forecast
Issued by NWS Honolulu, HI

Home | Current Version | Previous Version | Text Only | Print | Product List | Glossary On
Versions: 1 2 3 4 5 6 7 8 9 10 11 12 13 14 15 16 17 18 19 20 21 22 23 24 25 26 27 28 29 30 31 32 33 34 35 36 37 38 39 40 41 42 43 44
000
FTPA31 PHFO 250500
TAFHNL
TAF
PHNL 250520Z 2506/2612 06010G15KT P6SM VCSH FEW025 BKN045
     FM252000 06017G26KT P6SM FEW025 SCT045
     FM260500 06010G15KT P6SM FEW025 BKN045=

USA.gov is the U.S. government's official web portal to all federal, state and local government web resources and services.